Tracking 19170 objects as of 23-May-2018
HD Live streaming from Space Station
objects crossing your sky now

SAUDICOMSAT 7

Track SAUDICOMSAT 7 now!
10-day predictions
SAUDICOMSAT 7 is classified as:


NORAD ID: 31119
Int'l Code: 2007-012C
Perigee: 651.5 km
Apogee: 738.4 km
Inclination: 98.0 °
Period: 98.5 minutes
Semi major axis: 7065 km
RCS: 0.0759 m2 (small)
Launch date: April 17, 2007
Source: Saudi Arabia (SAUD)
Launch site: TYURATAM MISSILE AND SPACE COMPLEX (TTMTR)
aabbcc
Your satellite tracking list
Your tracking list is empty




NASA's NSSDC Master Catalog

Two Line Element Set (TLE):
1 31119U 07012C   18143.11142830  .00000049  00000-0  18973-4 0  9997
2 31119  97.9988  99.0206 0061523  73.2477 287.5463 14.61662317591614
Source of the keplerian elements: AFSPC